BI8BVW-13 Weather Reports


Display with metric or nautical units.
time (UTC)temp
F
wind
direction
speed
MPH
gust
MPH
rain 1hr
in
rain 24hr
in
rain mn
in
humidity
%
barometer
mb
20221207093546 56 270 0.0 0.0 0.00 0.00 0.00 55 956.3
20221207093147 55 0 0.0 0.0 0.00 0.00 0.00 55 956.2
20221207092745 55 0 0.0 0.0 0.00 0.00 0.00 56 956.2
20221207091546 55 0 0.0 0.0 0.00 0.00 0.00 55 956.0
20221207091146 55 0 0.0 0.0 0.00 0.00 0.00 55 956.0
20221207085545 55 0 0.0 0.0 0.00 0.00 0.00 55 955.8
20221207085146 55 0 0.0 0.0 0.00 0.00 0.00 55 955.8
20221207084345 55 0 0.0 0.0 0.00 0.00 0.00 55 955.8
20221207083545 55 0 0.0 1.0 0.00 0.00 0.00 56 955.8
20221207082747 55 0 0.0 1.0 0.00 0.00 0.00 56 955.8
20221207082345 54 0 0.0 1.0 0.00 0.00 0.00 56 955.7
20221207081545 54 0 0.0 1.0 0.00 0.00 0.00 56 955.7
20221207081145 55 0 0.0 1.0 0.00 0.00 0.00 55 955.7
20221207080745 56 0 0.0 1.0 0.00 0.00 0.00 54 955.7
20221207070743 56 0 0.0 1.0 0.00 0.00 0.00 57 955.7
20221207063944 53 0 0.0 1.0 0.00 0.00 0.00 61 956.0
20221207063144 52 0 0.0 2.0 0.00 0.00 0.00 62 956.2
20221207060343 53 0 0.0 2.0 0.00 0.00 0.00 62 956.6
20221207042743 51 0 0.0 1.0 0.00 0.00 0.00 67 958.8
20221207042343 51 0 0.0 1.0 0.00 0.00 0.00 69 958.8
20221207041142 50 270 0.0 2.0 0.00 0.00 0.00 68 959.0
20221207040343 51 0 0.0 2.0 0.00 0.00 0.00 67 959.2
20221207035143 51 0 0.0 1.0 0.00 0.00 0.00 68 959.4
20221207033943 51 0 0.0 1.0 0.00 0.00 0.00 69 959.6
20221207033544 50 270 0.0 1.0 0.00 0.00 0.00 69 959.7
20221207032743 50 0 0.0 1.0 0.00 0.00 0.00 69 959.7
20221207032343 50 0 0.0 1.0 0.00 0.00 0.00 70 959.7
20221207031943 50 0 0.0 1.0 0.00 0.00 0.00 70 959.7
20221207031543 50 0 0.0 1.0 0.00 0.00 0.00 71 959.7
20221207031143 50 0 0.0 0.0 0.00 0.00 0.00 71 959.7
20221207030742 49 0 0.0 0.0 0.00 0.00 0.00 72 959.9
20221207030342 49 270 0.0 0.0 0.00 0.00 0.00 72 959.9
20221207025543 48 0 0.0 1.0 0.00 0.00 0.00 73 960.0
20221207024742 48 0 0.0 1.0 0.00 0.00 0.00 73 960.1
20221207023942 48 270 0.0 1.0 0.00 0.00 0.00 72 960.1
20221207023142 48 0 0.0 1.0 0.00 0.00 0.00 74 960.2
20221207022342 47 270 0.0 1.0 0.00 0.00 0.00 74 960.1
20221207021943 47 270 0.0 1.0 0.00 0.00 0.00 75 960.1
20221207021142 47 0 0.0 1.0 0.00 0.00 0.00 74 960.2
20221207020742 48 0 0.0 1.0 0.00 0.00 0.00 75 960.1
20221207020342 48 270 0.0 1.0 0.00 0.00 0.00 75 960.1
20221207015942 47 293 0.0 1.0 0.00 0.00 0.00 76 960.1
20221207015542 47 0 0.0 1.0 0.00 0.00 0.00 77 960.1
20221207014743 47 0 0.0 1.0 0.00 0.00 0.00 77 960.1
20221207013543 47 0 0.0 1.0 0.00 0.00 0.00 76 960.1
20221207013142 47 270 0.0 1.0 0.00 0.00 0.00 76 960.1
20221207012742 47 270 0.0 1.0 0.00 0.00 0.00 76 960.0
20221207011142 47 0 0.0 1.0 0.00 0.00 0.00 75 959.9
20221207010341 47 293 0.0 1.0 0.00 0.00 0.00 75 960.0
20221207003942 47 0 0.0 1.0 0.00 0.00 0.00 76 959.9
20221207003142 47 0 0.0 1.0 0.00 0.00 0.00 76 959.8
20221207002742 47 0 0.0 1.0 0.00 0.00 0.00 76 959.7
20221207002342 47 0 0.0 0.0 0.00 0.00 0.00 75 959.7
20221207001942 47 270 0.0 0.0 0.00 0.00 0.00 76 959.6
20221207001542 47 0 0.0 0.0 0.00 0.00 0.00 76 959.6
20221207001142 47 0 0.0 0.0 0.00 0.00 0.00 76 959.6
20221206235142 47 0 0.0 1.0 0.00 0.00 0.00 75 959.5
20221206232742 47 270 0.0 1.0 0.00 0.00 0.00 75 959.3
20221206230742 47 270 0.0 0.0 0.00 0.00 0.00 75 959.1
20221206230342 47 293 0.0 0.0 0.00 0.00 0.00 75 959.0
20221206225542 47 0 0.0 0.0 0.00 0.00 0.00 75 958.9
20221206224741 47 0 0.0 0.0 0.00 0.00 0.00 75 958.9
20221206223942 47 0 0.0 0.0 0.00 0.00 0.00 76 958.9
20221206205141 46 0 0.0 1.0 0.00 0.00 0.00 77 959.1
20221206201541 47 293 0.0 0.0 0.00 0.00 0.00 76 959.5
20221206201141 47 0 0.0 1.0 0.00 0.00 0.00 77 959.5
20221206194741 47 270 0.0 0.0 0.00 0.00 0.00 76 959.6
20221206192740 47 0 0.0 1.0 0.00 0.00 0.00 77 959.8
20221206191940 47 0 0.0 1.0 0.00 0.00 0.00 76 960.0
20221206191141 47 293 0.0 1.0 0.00 0.00 0.00 76 960.0
20221206185140 48 0 0.0 1.0 0.00 0.00 0.00 73 960.0
20221206184340 48 0 0.0 1.0 0.00 0.00 0.00 73 959.9
20221206180740 48 0 0.0 1.0 0.00 0.00 0.00 71 960.0
20221206171540 48 0 0.0 0.0 0.00 0.00 0.00 71 960.4
20221206163139 49 0 0.0 0.0 0.00 0.00 0.00 70 960.7
20221206160739 49 0 0.0 0.0 0.00 0.00 0.00 68 961.0
20221206154740 50 0 0.0 0.0 0.00 0.00 0.00 67 961.1
20221206152339 50 0 0.0 1.0 0.00 0.00 0.00 67 961.3
20221206151939 50 0 0.0 1.0 0.00 0.00 0.00 67 961.3
20221206150740 50 0 0.0 1.0 0.00 0.00 0.00 67 961.2
20221206141139 49 0 0.0 0.0 0.00 0.00 0.00 70 961.2
20221206135139 49 0 0.0 0.0 0.00 0.00 0.00 70 961.1
20221206134739 49 0 0.0 1.0 0.00 0.00 0.00 70 961.1
20221206132339 49 0 0.0 1.0 0.00 0.00 0.00 69 961.0
20221206131540 49 0 0.0 1.0 0.00 0.00 0.00 68 961.0
20221206125939 50 0 0.0 1.0 0.00 0.00 0.00 67 960.9
20221206125139 50 0 0.0 1.0 0.00 0.00 0.00 67 960.8
20221206121139 50 0 0.0 1.0 0.00 0.00 0.00 68 960.5
20221206115938 50 0 0.0 1.0 0.00 0.00 0.00 68 960.5
20221206115139 50 0 0.0 1.0 0.00 0.00 0.00 68 960.5
20221206113538 50 0 0.0 1.0 0.00 0.00 0.00 68 960.3
20221206111538 50 0 0.0 1.0 0.00 0.00 0.00 68 960.0
20221206102338 50 0 0.0 2.0 0.00 0.00 0.00 68 959.3